weather.gov     
National Weather Service

Regional Weather Roundup
NWS Homepage
This page is being discontinued on March 12, 2014.
The same data is available at this site. Please update your bookmarks.
Thank you, and we apologize for the inconvenience.
Please send an email to SR-SRH.Webmaster@noaa.gov with any concerns.


Current Version
Previous Version:    01  02  03  04  05  06  07  08  09  10  11  12  13  14  15  16  17  18  19  20  21  22  23  24  25  26  27  28  29  30  
   31  32  33  34  35  36  37  38  39  40  41  42  43  44  45  46  47  48  49  50  51  52  53  54  
[Printable]
843
ASCA42 TJSJ 220611
RWRPR
PUERTO RICO/U.S. VIRGIN ISLANDS HOURLY WEATHER ROUNDUP
NATIONAL WEATHER SERVICE SAN JUAN PR
200 AM AST MON DEC 22 2014

PRZ001-004-220700-
PUERTO RICO

CITY           SKY/WX    TMP DP  RH WIND       PRES   REMARKS
SAN JUAN LMM   PTCLDY    75  68  78 CALM      30.05F
PONCE          CLEAR     66  61  82 CALM      30.02
CEIBA          PTCLDY    73  68  83 N3        30.06F
$$

PRZ006-007-220700-
U.S. VIRGIN ISLANDS

CITY           SKY/WX    TMP DP  RH WIND       PRES   REMARKS
$$

HOURLY WEATHER ROUNDUP FOR THE NEWS MEDIA

CITY           SKY/WX    TMP DP  RH WIND       PRES   REMARKS
MIAMI          MOCLDY    72  66  81 CALM      30.04F
ORLANDO        RAIN      67  65  93 N6        30.06R FOG
NEW YORK       CLOUDY    37  30  75 N6        30.33S WCI  32
NEWARK         CLOUDY    34  30  85 N7        30.33F WCI  28
CHICAGO        MOCLDY    31  27  85 SE10      30.01F WCI  22
HARTFORD       CLOUDY    34  32  92 N6        30.32F WCI  29
BOSTON         CLOUDY    33  25  72 NW7       30.36F WCI  27
DALLAS         CLOUDY    53  48  83 S15       29.73F
PHILADELPHIA   PTCLDY    29  21  72 N3        30.32F




U.S. Dept. of Commerce
NOAA National Weather Service
1325 East West Highway
Silver Spring, MD 20910
E-mail: w-nws.webmaster@noaa.gov
Page last modified: May 16, 2007
NATIONAL WEATHER SERVICE: for Safety, for Work, for Fun - FOR LIFE